Regional Weather Roundup
Issued by NWS

Home | Current Version | Previous Version | Graphics & Text | Print | Product List | Glossary On
Versions: 1 2 3 4 5 6 7 8 9 10 11 12 13 14 15 16 17 18 19 20 21 22 23 24 25 26 27 28 29 30 31 32 33 34 35 36 37 38 39 40 41 42 43 44 45 46 47 48 49 50
000
ASUS45 KCYS 050110
RWRWY

WYOMING REGIONAL WEATHER ROUNDUP
NATIONAL WEATHER SERVICE CHEYENNE WY
700 PM MDT TUE AUG 04 2015

NOTE:  "FAIR" INDICATES FEW OR NO CLOUDS BELOW 12,000 FEET
WITH NO SIGNIFICANT WEATHER AND/OR OBSTRUCTIONS TO VISIBILITY.

WYZ001-050200-
YELLOWSTONE NATIONAL PARK

CITY           SKY/WX    TMP DP  RH WIND       PRES   REMARKS
LK YELLOWSTONE   N/A     50  47  89 VRB5      30.32R
W YELLOWSTONE  NOT AVBL

$$
WYZ002>013-054>058-071-098>099-050200-
NORTHERN WYOMING

CITY           SKY/WX    TMP DP  RH WIND       PRES   REMARKS
JACKSON        PTSUNNY   72  45  37 SW10      30.17R
CODY           FAIR      70  54  56 N5        30.07F
GREYBULL       FAIR      81  49  32 NW12      29.97F
WORLAND        FAIR      80  50  34 NE6       30.00R
SHERIDAN       FAIR      76  53  44 NW6       30.00R
BUFFALO        FAIR      73  55  53 NW12      30.06R
GILLETTE       FAIR      69  59  70 N5        30.03R
HULETT         RAIN      63  59  88 S3        30.06R
NEWCASTLE      MOCLDY    64  55  72 N10       30.07R

$$
WYZ014>020-022>026-101>103-050200-
CENTRAL WYOMING

CITY           SKY/WX    TMP DP  RH WIND       PRES   REMARKS
BIG PINEY      FAIR      70  44  39 NW8       30.22S
PINEDALE       FAIR      70  34  26 W8        30.23S
DUBOIS         FAIR      72  32  23 NW18G25   30.18R
LANDER         FAIR      80  48  32 SE3       30.04S
RIVERTON       PTSUNNY   79  46  31 E6        30.06S
CASPER         FAIR      78  52  40 NE9       30.06S
DOUGLAS        FAIR      76  55  48 N3        30.06S

$$
WYZ021-027>030-104>119-050200-
SOUTHERN WYOMING

CITY           SKY/WX    TMP DP  RH WIND       PRES   REMARKS
EVANSTON       FAIR      79  36  21 W16G23    30.23R
KEMMERER       FAIR      77  32  19 W13       30.25R
FORT BRIDGER   PTCLDY    79  37  22 W13G21    30.25R
ROCK SPRINGS   FAIR      78  37  22 NW16G24   30.18S
DIXON          FAIR      81  31  16 W14       30.20F
RAWLINS        FAIR      77  34  21 W17G24    30.17S
SARATOGA       FAIR      75  36  23 W9        30.20F
LARAMIE        FAIR      74  42  31 NW15      30.19S
CHEYENNE       FAIR      70  52  52 NE8       30.13R
TORRINGTON     FAIR      72  59  63 S3        30.00F
PINE BLUFFS    FAIR      73  52  46 N8        30.08R

$$



USA.gov is the U.S. government's official web portal to all federal, state and local government web resources and services.